This is the latest recevied weather packets stored in our database for station/object W0RMT-13. If no packets are shown the sender has not sent any weather packets the latest 10 day(s).
| Time | Temp. | Humidity | Pressure | Rain* | Wind** | Luminosity | Snow |
|---|---|---|---|---|---|---|---|
| 1778110413 | 2.22° C | 92% | 1017.8 hPa | 0 mm | - | 40 W/m² | - |
| 1778109771 | 2.78° C | 89% | 1017.8 hPa | 0.51 mm | - | 45 W/m² | - |
| 1778109054 | 2.78° C | 88% | 1017.4 hPa | 0.51 mm | - | 63 W/m² | - |
| 1778108373 | 3.33° C | 89% | 1017.8 hPa | 0.76 mm | - | 484 W/m² | - |
| 1778107713 | 3.33° C | 89% | 1017.8 hPa | 1.02 mm | - | 505 W/m² | - |
| 1778107083 | 3.33° C | 87% | 1018.2 hPa | 1.27 mm | - | 532 W/m² | - |
| 1778106439 | 3.33° C | 87% | 1018.2 hPa | 1.52 mm | - | 550 W/m² | - |
| 1778105814 | 3.33° C | 87% | 1018.2 hPa | 2.03 mm | - | 578 W/m² | - |
| 1778105166 | 3.33° C | 88% | 1018.2 hPa | 2.29 mm | - | 558 W/m² | - |
| 1778104512 | 3.33° C | 86% | 1018.2 hPa | 2.54 mm | - | 566 W/m² | - |
| 1778103843 | 2.78° C | 84% | 1018.7 hPa | 3.05 mm | - | 153 W/m² | - |
| 1778103226 | 2.78° C | 90% | 1019 hPa | 3.05 mm | - | 627 W/m² | - |
| 1778102579 | 1.67° C | 90% | 1018.7 hPa | 2.54 mm | - | 711 W/m² | - |
| 1778101898 | 1.67° C | 91% | 1019 hPa | 2.79 mm | - | 272 W/m² | - |
| 1778101262 | 1.67° C | 92% | 1019 hPa | 2.79 mm | - | 242 W/m² | - |
| 1778100630 | 1.67° C | 94% | 1019 hPa | 2.29 mm | - | 308 W/m² | - |
| 1778100009 | 1.67° C | 93% | 1019.4 hPa | 1.78 mm | - | 304 W/m² | - |
| 1778099339 | 1.67° C | 92% | 1019.4 hPa | 1.78 mm | - | 253 W/m² | - |
| 1778098729 | 1.67° C | 92% | 1019.4 hPa | 1.02 mm | - | 273 W/m² | - |
| 1778098087 | 1.11° C | 88% | 1019.4 hPa | 0.51 mm | - | 349 W/m² | - |
| 1778097363 | 1.11° C | 93% | 1019.8 hPa | 0.51 mm | - | 269 W/m² | - |
| 1778096758 | 1.11° C | 93% | 1019.8 hPa | 0.25 mm | - | 242 W/m² | - |
| 1778096137 | 1.67° C | 93% | 1019.4 hPa | 0 mm | - | 201 W/m² | - |
| 1778095418 | 1.67° C | 94% | 1019.8 hPa | 0 mm | - | 209 W/m² | - |
| 1778094798 | 2.22° C | 94% | 1019.8 hPa | 0 mm | - | 175 W/m² | - |
* Rain latest hour (hover to see other rain measurements)
** Current wind speed in m/s (hover to see current wind gust speed)